Simultaneous Nadir Overpasses (SNOs) Predictions

Prediction of SNOs between GOES-17 and LANDSAT-8 Satellite Orbit:

Table of predicted SNOs for the next 14.0 days since TLE Epoch: 10/23/2021
Index Date Time (GOES-17) GOES-17 Lat,Lon LANDSAT-8 Lat,Lon Distance(km) Time Diff (sec)
1 10/23/2021 07:26:02 0.05,-137.21 -0.14,-137.98 87.86 80
2 10/25/2021 07:11:11 0.05,-137.22 0.51,-135.03 249.36 80
3 10/25/2021 19:32:27 -0.05,-137.23 0.56,-140.19 336.23 80
4 10/27/2021 19:22:55 -0.04,-137.22 -0.03,-137.22 0.75 80
5 10/29/2021 19:10:44 -0.03,-137.22 -0.69,-134.27 335.91 80
6 10/30/2021 07:32:08 0.03,-137.21 -0.43,-139.46 255.15 80
7 11/01/2021 07:17:16 0.03,-137.20 0.16,-136.49 80.01 80
8 11/03/2021 07:05:05 0.03,-137.18 0.83,-133.54 414.52 80
9 11/03/2021 19:26:20 -0.03,-137.18 0.30,-138.69 171.88 80
10 11/05/2021 19:16:48 -0.03,-137.16 -0.31,-135.73 161.60 80
